Tracking 27405 objects as of 1-Jun-2023
HD Live streaming from Space Station
objects crossing your sky now

COSMOS 994

Track COSMOS 994 now!
10-day predictions
COSMOS 994 is classified as:


NORAD ID: 10731
Int'l Code: 1978-028A
Perigee: 977.0 km
Apogee: 1,012.9 km
Inclination: 82.9 °
Period: 104.9 minutes
Semi major axis: 7365 km
RCS: 2.0708 m2 (large)
Launch date: March 15, 1978
Source: Commonwealth of Independent States (former USSR) (CIS)
Launch site: PLESETSK MISSILE AND SPACE COMPLEX (PKMTR)
Your satellite tracking list
Your tracking list is empty




NASA's NSSDC Master Catalog

Two Line Element Set (TLE):
1 10731U 78028A   23151.95487032  .00000053  00000-0  40617-4 0  9997
2 10731  82.9296 117.7593 0024347 117.9349 302.5544 13.73276009265146
Source of the keplerian elements: AFSPC